sat.trackr.live / text

‹ back to catalog

STARLINK-4672

NORAD 53592 · 2022-104E

PAYLOAD ACTIVE UNKNOWN

§ Identity

Operator
Country
US
Launch date
2022-08-28
Launch site
AFETR
Launch vehicle
Mass (kg)
RCS (m²)

Purposes: comms

External: N2YO · Heavens-Above · Gunter

§ Orbital elements

Epoch: 2026-09-20T04:24:34.739424Z

Period
93.79 min
Inclination
53.1597°
Eccentricity
0.0001132
Mean motion
15.35400998 rev/d
Perigee alt
459.0 km
Apogee alt
460.5 km
Semi-major
6,837.9 km
B*
1.4534e-5
RAAN
75.1327°
Arg perigee
91.7439°
Mean anomaly
268.3693°
Rev number
22,552

§ Raw data

STARLINK-46721 53592U 22104E   26263.18373541  .00000127  00000+0  14534-4 0  99942 53592  53.1597  75.1327 0001132  91.7439 268.3693 15.35400998225528

JSON: /api/v1/satellites/53592 · /tle

For live sub-satellite position, see the globe view (requires WebGL).

§ Visibility from observer

Set your observer location to see the next 7 days of passes ≥ 10°. The values pass through the URL so the page stays shareable.

No JS? Fill the form by hand. The geolocation button needs JavaScript.